C/2017 G3 ( PanSTARRS )

Japanese version
Home page
Updated on March 3, 2018

---------------------------------------------------------------------

* Profile

Discovery Date April 7, 2017
Magnitude 19.6 mag
Discoverer Pan-STARRS 1 telescope (Haleakala)

* Pictures

* Orbital Elements

Epoch 2017 Mar. 28.0 TT = JDT 2457840.5
T 2017 Apr. 15.04719 TT                                 MPCW
q   2.5904855            (2000.0)            P               Q
z  +0.0034698      Peri.   73.09487     -0.83355638     -0.42521666
 +/-0.0000052      Node   279.46551     -0.53405506     +0.78355283
e   0.9910115      Incl.  159.05107     +0.14131153     +0.45302953
From 140 observations 2017 Apr. 7-2018 Jan. 20, mean residual 0".4.

* Magnitudes Graph

        m1 = 14.0 + 5 log d + 10.0 log r

---------------------------------------------------------------------

The orbital elements are published on M.P.E.C. 2018-D91.
The magnitudes graphs are made with Comet for Windows.

---------------------------------------------------------------------

Copyright(C) Seiichi Yoshida (comet@aerith.net). All rights reserved.